Location: C.E.K. Mees Observatory
(42.7003°N, 77.4088°W)
Time: 11:06:43
(UTC-04:00)

Tiangong 1 - Pass Details

Date: 11 October 2017
Orbit: 294 x 321 km, 42.8° (Epoch: 17 October)

Event Time Altitude Azimuth Distance (km) Brightness Sun altitude
Rises 19:31:12 0° 274° (W) 2,041 6.9 -11.4°
Reaches altitude 10° 19:33:11 10° 274° (W) 1,206 5.1 -11.8°
Maximum altitude 19:35:53 89° 357° (N) 314 0.5 -12.3°
Enters shadow 19:37:10 27° 94° (E) 632 1.5 -12.5°
